Time,TemperatureF,DewpointF,PressureIn,WindDirection,WindDirectionDegrees,WindSpeedMPH,WindSpeedGustMPH,Humidity,HourlyPrecipIn,Conditions,Clouds,dailyrainin,SoftwareType,DateUTC
2013-08-15 00:00:00,56.7,46.8,30.03,WNW,293,0.9,0.9,69,0.00,,,0.00,WUHU216HW,2013-08-15 04:00:00,
2013-08-15 00:01:00,56.7,46.8,30.03,WNW,293,0.9,0.9,69,0.00,,,0.00,WUHU216HW,2013-08-15 04:01:00,
2013-08-15 00:06:00,56.7,46.8,30.03,WNW,293,0.9,0.9,69,0.00,,,0.00,WUHU216HW,2013-08-15 04:06:00,
2013-08-15 00:30:00,56.0,46.8,30.03,WNW,293,1.1,1.1,71,0.00,,,0.00,WUHU216HW,2013-08-15 04:30:00,
2013-08-15 00:35:00,56.0,46.8,30.03,WNW,293,1.1,1.1,71,0.00,,,0.00,WUHU216HW,2013-08-15 04:35:00,
2013-08-15 01:00:00,55.2,46.4,30.03,SW,225,0.0,0.0,72,0.00,,,0.00,WUHU216HW,2013-08-15 05:00:00,
2013-08-15 01:05:00,55.2,46.4,30.03,SW,225,0.0,0.0,72,0.00,,,0.00,WUHU216HW,2013-08-15 05:05:00,
2013-08-15 01:30:00,54.5,46.1,30.03,SW,225,0.0,0.0,73,0.00,,,0.00,WUHU216HW,2013-08-15 05:30:00,
2013-08-15 01:35:00,54.5,46.1,30.03,SW,225,0.0,0.0,73,0.00,,,0.00,WUHU216HW,2013-08-15 05:35:00,
2013-08-15 02:00:00,53.8,45.8,30.04,West,270,0.2,0.2,74,0.00,,,0.00,WUHU216HW,2013-08-15 06:00:00,
2013-08-15 02:05:00,53.8,45.8,30.04,West,270,0.2,0.2,74,0.00,,,0.00,WUHU216HW,2013-08-15 06:05:00,
2013-08-15 02:30:00,52.9,46.0,30.04,WNW,293,0.0,0.0,77,0.00,,,0.00,WUHU216HW,2013-08-15 06:30:00,
2013-08-15 02:35:00,52.9,46.0,30.04,WNW,293,0.0,0.0,77,0.00,,,0.00,WUHU216HW,2013-08-15 06:35:00,
2013-08-15 03:00:00,52.0,45.1,30.04,SE,135,0.4,0.4,77,0.00,,,0.00,WUHU216HW,2013-08-15 07:00:00,
2013-08-15 03:05:00,52.0,45.1,30.04,SE,135,0.4,0.4,77,0.00,,,0.00,WUHU216HW,2013-08-15 07:05:00,
2013-08-15 03:30:00,51.5,44.9,30.05,SE,135,0.4,0.4,78,0.00,,,0.00,WUHU216HW,2013-08-15 07:30:00,
2013-08-15 03:35:00,51.5,44.9,30.05,SE,135,0.4,0.4,78,0.00,,,0.00,WUHU216HW,2013-08-15 07:35:00,
2013-08-15 04:00:00,50.9,44.7,30.05,SE,135,0.4,0.4,79,0.00,,,0.00,WUHU216HW,2013-08-15 08:00:00,
2013-08-15 04:05:00,50.9,44.7,30.05,SE,135,0.4,0.4,79,0.00,,,0.00,WUHU216HW,2013-08-15 08:05:00,
2013-08-15 04:30:00,50.6,44.7,30.05,SE,135,1.1,1.1,80,0.00,,,0.00,WUHU216HW,2013-08-15 08:30:00,
2013-08-15 04:35:00,50.6,44.7,30.05,SE,135,1.1,1.1,80,0.00,,,0.00,WUHU216HW,2013-08-15 08:35:00,
2013-08-15 05:00:00,50.0,44.1,30.06,SE,135,0.4,0.4,80,0.00,,,0.00,WUHU216HW,2013-08-15 09:00:00,
2013-08-15 05:05:00,50.0,44.1,30.06,SE,135,0.4,0.4,80,0.00,,,0.00,WUHU216HW,2013-08-15 09:05:00,
2013-08-15 05:30:00,49.5,43.9,30.06,SE,135,0.4,0.4,81,0.00,,,0.00,WUHU216HW,2013-08-15 09:30:00,
2013-08-15 05:35:00,49.5,43.9,30.06,SE,135,0.4,0.4,81,0.00,,,0.00,WUHU216HW,2013-08-15 09:35:00,
2013-08-15 06:00:00,49.1,43.9,30.07,SE,135,0.7,0.7,82,0.00,,,0.00,WUHU216HW,2013-08-15 10:00:00,
2013-08-15 06:05:00,49.1,43.9,30.07,SE,135,0.7,0.7,82,0.00,,,0.00,WUHU216HW,2013-08-15 10:05:00,
2013-08-15 06:30:00,48.8,43.6,30.08,SE,135,0.0,0.0,82,0.00,,,0.00,WUHU216HW,2013-08-15 10:30:00,
2013-08-15 06:35:00,48.8,43.6,30.08,SE,135,0.0,0.0,82,0.00,,,0.00,WUHU216HW,2013-08-15 10:35:00,
2013-08-15 07:00:00,48.9,44.0,30.08,SW,225,0.0,0.0,83,0.00,,,0.00,WUHU216HW,2013-08-15 11:00:00,
2013-08-15 07:05:00,48.9,44.0,30.08,SW,225,0.0,0.0,83,0.00,,,0.00,WUHU216HW,2013-08-15 11:05:00,
2013-08-15 07:30:00,49.5,44.9,30.09,WSW,248,0.4,0.4,84,0.00,,,0.00,WUHU216HW,2013-08-15 11:30:00,
2013-08-15 07:35:00,49.5,44.9,30.09,WSW,248,0.4,0.4,84,0.00,,,0.00,WUHU216HW,2013-08-15 11:35:00,
2013-08-15 08:00:00,50.7,46.0,30.10,WSW,248,2.5,2.5,84,0.00,,,0.00,WUHU216HW,2013-08-15 12:00:00,
2013-08-15 08:05:00,50.7,46.0,30.10,WSW,248,2.5,2.5,84,0.00,,,0.00,WUHU216HW,2013-08-15 12:05:00,
2013-08-15 08:30:00,52.7,47.4,30.10,West,270,2.0,2.0,82,0.00,,,0.00,WUHU216HW,2013-08-15 12:30:00,
2013-08-15 08:35:00,52.7,47.4,30.10,West,270,2.0,2.0,82,0.00,,,0.00,WUHU216HW,2013-08-15 12:35:00,
2013-08-15 09:00:00,54.5,48.5,30.11,West,270,2.2,2.2,80,0.00,,,0.00,WUHU216HW,2013-08-15 13:00:00,
2013-08-15 09:05:00,54.5,48.5,30.11,West,270,2.2,2.2,80,0.00,,,0.00,WUHU216HW,2013-08-15 13:05:00,
2013-08-15 09:30:00,56.3,49.6,30.10,SW,225,0.4,0.4,78,0.00,,,0.00,WUHU216HW,2013-08-15 13:30:00,
2013-08-15 09:35:00,56.3,49.6,30.10,SW,225,0.4,0.4,78,0.00,,,0.00,WUHU216HW,2013-08-15 13:35:00,
2013-08-15 10:00:00,58.5,51.1,30.11,SE,135,0.4,0.4,76,0.00,,,0.00,WUHU216HW,2013-08-15 14:00:00,
2013-08-15 10:05:00,58.5,51.1,30.11,SE,135,0.4,0.4,76,0.00,,,0.00,WUHU216HW,2013-08-15 14:05:00,
2013-08-15 10:30:00,60.6,51.7,30.10,SW,225,0.4,0.4,72,0.00,,,0.00,WUHU216HW,2013-08-15 14:30:00,
2013-08-15 10:35:00,60.6,51.7,30.10,SW,225,0.4,0.4,72,0.00,,,0.00,WUHU216HW,2013-08-15 14:35:00,
2013-08-15 11:00:00,62.1,52.7,30.11,NNE,23,1.8,1.8,71,0.00,,,0.00,WUHU216HW,2013-08-15 15:00:00,
2013-08-15 11:01:00,62.1,52.7,30.11,NNE,23,1.8,1.8,71,0.00,,,0.00,WUHU216HW,2013-08-15 15:01:00,
2013-08-15 11:06:00,62.1,52.7,30.11,NNE,23,1.8,1.8,71,0.00,,,0.00,WUHU216HW,2013-08-15 15:06:00,
2013-08-15 11:30:00,63.2,52.2,30.11,South,180,0.4,0.4,67,0.00,,,0.00,WUHU216HW,2013-08-15 15:30:00,
2013-08-15 11:35:00,63.2,52.2,30.11,South,180,0.4,0.4,67,0.00,,,0.00,WUHU216HW,2013-08-15 15:35:00,
2013-08-15 12:00:00,64.6,52.7,30.10,NW,315,0.2,0.2,65,0.00,,,0.00,WUHU216HW,2013-08-15 16:00:00,
2013-08-15 12:05:00,64.6,52.7,30.10,NW,315,0.2,0.2,65,0.00,,,0.00,WUHU216HW,2013-08-15 16:05:00,
2013-08-15 12:30:00,65.9,52.2,30.10,SW,225,0.4,0.4,61,0.00,,,0.00,WUHU216HW,2013-08-15 16:30:00,
2013-08-15 12:35:00,65.9,52.2,30.10,SW,225,0.4,0.4,61,0.00,,,0.00,WUHU216HW,2013-08-15 16:35:00,
2013-08-15 13:00:00,66.8,50.7,30.09,West,270,4.7,4.7,56,0.00,,,0.00,WUHU216HW,2013-08-15 17:00:00,
2013-08-15 13:05:00,66.8,50.7,30.09,West,270,4.7,4.7,56,0.00,,,0.00,WUHU216HW,2013-08-15 17:05:00,
2013-08-15 13:30:00,67.3,51.7,30.08,SW,225,2.7,2.7,57,0.00,,,0.00,WUHU216HW,2013-08-15 17:30:00,
2013-08-15 13:35:00,67.3,51.7,30.08,SW,225,2.7,2.7,57,0.00,,,0.00,WUHU216HW,2013-08-15 17:35:00,
2013-08-15 14:00:00,68.6,52.4,30.07,West,270,2.5,2.5,56,0.00,,,0.00,WUHU216HW,2013-08-15 18:00:00,
2013-08-15 14:05:00,68.6,52.4,30.07,West,270,2.5,2.5,56,0.00,,,0.00,WUHU216HW,2013-08-15 18:05:00,
2013-08-15 14:30:00,68.7,53.0,30.07,NW,315,3.4,3.4,57,0.00,,,0.00,WUHU216HW,2013-08-15 18:30:00,
2013-08-15 14:31:00,68.7,53.0,30.07,NW,315,3.4,3.4,57,0.00,,,0.00,WUHU216HW,2013-08-15 18:31:00,
2013-08-15 14:36:00,68.7,53.0,30.07,NW,315,3.4,3.4,57,0.00,,,0.00,WUHU216HW,2013-08-15 18:36:00,
2013-08-15 15:00:00,69.3,49.9,30.06,West,270,4.0,4.0,50,0.00,,,0.00,WUHU216HW,2013-08-15 19:00:00,
2013-08-15 15:01:00,69.3,49.9,30.06,West,270,4.0,4.0,50,0.00,,,0.00,WUHU216HW,2013-08-15 19:01:00,
2013-08-15 15:06:00,69.3,49.9,30.06,West,270,4.0,4.0,50,0.00,,,0.00,WUHU216HW,2013-08-15 19:06:00,
2013-08-15 15:30:00,70.4,50.9,30.05,North,0,5.4,5.4,50,0.00,,,0.00,WUHU216HW,2013-08-15 19:30:00,
2013-08-15 15:35:00,70.4,50.9,30.05,North,0,5.4,5.4,50,0.00,,,0.00,WUHU216HW,2013-08-15 19:35:00,
2013-08-15 16:00:00,71.1,49.9,30.06,NNW,338,4.3,4.3,47,0.00,,,0.00,WUHU216HW,2013-08-15 20:00:00,
2013-08-15 16:05:00,71.1,49.9,30.06,NNW,338,4.3,4.3,47,0.00,,,0.00,WUHU216HW,2013-08-15 20:05:00,
2013-08-15 16:30:00,72.3,50.4,30.05,WNW,293,2.5,2.5,46,0.00,,,0.00,WUHU216HW,2013-08-15 20:30:00,
2013-08-15 16:35:00,72.3,50.4,30.05,WNW,293,2.5,2.5,46,0.00,,,0.00,WUHU216HW,2013-08-15 20:35:00,
2013-08-15 17:00:00,71.1,50.4,30.05,WNW,293,0.4,0.4,48,0.00,,,0.00,WUHU216HW,2013-08-15 21:00:00,
2013-08-15 17:05:00,71.1,50.4,30.05,WNW,293,0.4,0.4,48,0.00,,,0.00,WUHU216HW,2013-08-15 21:05:00,
2013-08-15 17:30:00,74.0,51.9,30.05,WSW,248,2.9,2.9,46,0.00,,,0.00,WUHU216HW,2013-08-15 21:30:00,
2013-08-15 17:35:00,74.0,51.9,30.05,WSW,248,2.9,2.9,46,0.00,,,0.00,WUHU216HW,2013-08-15 21:35:00,
2013-08-15 18:00:00,74.5,52.4,30.05,WNW,293,4.0,4.0,46,0.00,,,0.00,WUHU216HW,2013-08-15 22:00:00,
2013-08-15 18:01:00,74.5,52.4,30.05,WNW,293,4.0,4.0,46,0.00,,,0.00,WUHU216HW,2013-08-15 22:01:00,
2013-08-15 18:06:00,74.5,52.4,30.05,WNW,293,4.0,4.0,46,0.00,,,0.00,WUHU216HW,2013-08-15 22:06:00,
2013-08-15 18:30:00,77.4,54.4,30.05,West,270,1.1,1.1,45,0.00,,,0.00,WUHU216HW,2013-08-15 22:30:00,
2013-08-15 18:35:00,77.4,54.4,30.05,West,270,1.1,1.1,45,0.00,,,0.00,WUHU216HW,2013-08-15 22:35:00,
2013-08-15 19:00:00,80.8,54.9,30.05,WNW,293,0.0,0.0,41,0.00,,,0.00,WUHU216HW,2013-08-15 23:00:00,
2013-08-15 19:05:00,80.8,54.9,30.05,WNW,293,0.0,0.0,41,0.00,,,0.00,WUHU216HW,2013-08-15 23:05:00,
2013-08-15 19:30:00,74.7,51.9,30.06,West,270,0.2,0.2,45,0.00,,,0.00,WUHU216HW,2013-08-15 23:30:00,
2013-08-15 19:35:00,74.7,51.9,30.06,West,270,0.2,0.2,45,0.00,,,0.00,WUHU216HW,2013-08-15 23:35:00,
2013-08-15 20:00:00,69.6,51.3,30.08,SE,135,1.1,1.1,52,0.00,,,0.00,WUHU216HW,2013-08-16 00:00:00,
2013-08-15 20:06:00,69.6,51.3,30.08,SE,135,1.1,1.1,52,0.00,,,0.00,WUHU216HW,2013-08-16 00:06:00,
2013-08-15 20:30:00,66.4,50.8,30.09,SE,135,0.4,0.4,57,0.00,,,0.00,WUHU216HW,2013-08-16 00:30:00,
2013-08-15 20:35:00,66.4,50.8,30.09,SE,135,0.4,0.4,57,0.00,,,0.00,WUHU216HW,2013-08-16 00:35:00,
2013-08-15 21:00:00,64.2,50.6,30.09,SE,135,0.0,0.0,61,0.00,,,0.00,WUHU216HW,2013-08-16 01:00:00,
2013-08-15 21:05:00,64.2,50.6,30.09,SE,135,0.0,0.0,61,0.00,,,0.00,WUHU216HW,2013-08-16 01:05:00,
2013-08-15 21:30:00,62.3,50.1,30.10,SE,135,0.7,0.7,64,0.00,,,0.00,WUHU216HW,2013-08-16 01:30:00,
2013-08-15 21:36:00,62.3,50.1,30.10,SE,135,0.7,0.7,64,0.00,,,0.00,WUHU216HW,2013-08-16 01:36:00,
2013-08-15 22:00:00,61.0,49.3,30.11,SE,135,0.4,0.4,65,0.00,,,0.00,WUHU216HW,2013-08-16 02:00:00,
2013-08-15 22:05:00,61.0,49.3,30.11,SE,135,0.4,0.4,65,0.00,,,0.00,WUHU216HW,2013-08-16 02:05:00,
2013-08-15 22:30:00,60.1,49.6,30.11,SE,135,0.0,0.0,68,0.00,,,0.00,WUHU216HW,2013-08-16 02:30:00,
2013-08-15 22:35:00,60.1,49.6,30.11,SE,135,0.0,0.0,68,0.00,,,0.00,WUHU216HW,2013-08-16 02:35:00,
2013-08-15 23:00:00,58.8,48.8,30.11,SE,135,0.0,0.0,69,0.00,,,0.00,WUHU216HW,2013-08-16 03:00:00,
2013-08-15 23:05:00,58.8,48.8,30.11,SE,135,0.0,0.0,69,0.00,,,0.00,WUHU216HW,2013-08-16 03:05:00,
2013-08-15 23:30:00,58.1,48.5,30.11,SE,135,0.0,0.0,70,0.00,,,0.00,WUHU216HW,2013-08-16 03:30:00,
2013-08-15 23:35:00,58.1,48.5,30.11,SE,135,0.0,0.0,70,0.00,,,0.00,WUHU216HW,2013-08-16 03:35:00,